Regional Weather Roundup
Issued by NWS

Home | Current Version | Previous Version | Text Only | Print | Product List | Glossary Off
Versions: 1 2 3 4 5 6 7 8 9 10 11 12 13 14 15 16 17 18 19 20 21 22 23 24 25 26 27 28 29 30 31 32 33 34 35 36 37 38 39 40 41 42 43 44 45 46 47 48 49 50

687
ASUS45 KBOU 240407
RWRCO

WEATHER ROUNDUP FOR COLORADO
NATIONAL WEATHER SERVICE DENVER/BOULDER CO
1000 PM MDT SAT JUL 23 2016

NOTE: "FAIR" INDICATES FEW OR NO CLOUDS BELOW 12000 FEET WITH NO
SIGNIFICANT WEATHER AND/OR OBSTRUCTIONS TO VISIBILITY.

COZ001>005-013-030-031-240500-
...NORTHWEST COLORADO...

CITY           SKY/WX    TMP DP  RH WIND       PRES   REMARKS
CRAIG          FAIR      75  38  26 N14G23    30.20R
HAYDEN         FAIR      73  39  29 N5        30.20R
MEEKER         FAIR      71  40  32 NE10      30.18R
MOUNT WERNER   NOT AVBL
STEAMBOAT SPGS FAIR      66  44  44 E7        30.24R
WALDEN         FAIR      59  39  47 SE6       30.36R
$$

COZ006>008-011-240500-
...WEST CENTRAL VALLEYS...

CITY           SKY/WX    TMP DP  RH WIND       PRES   REMARKS
GRAND JUNCTION FAIR      89  38  16 NE13      30.02R
MONTROSE       FAIR      77  44  30 SE10      30.13R
EAGLE          FAIR      73  39  29 S10       30.23R
RIFLE          FAIR      75  38  26 S7        30.12R
DELTA          FAIR      80  43  27 E8        30.07R
NUCLA          FAIR      77  41  27 NE3       30.19R
$$

COZ017>023-064>068-240500-
...SOUTHWEST COLORADO...

CITY           SKY/WX    TMP DP  RH WIND       PRES   REMARKS
DURANGO        FAIR      67  47  48 N6        30.21R
CORTEZ         FAIR      72  43  35 E9        30.13R
PAGOSA SPRINGS FAIR      72  36  27 CALM      30.31R
TELLURIDE      FAIR      66  41  40 SE5       30.46R
WOLF CREEK PAS MOCLDY    54  32  43 N10       30.69S
$$

COZ009-010-012-014-032>034-037-058>063-240500-
...CENTRAL COLORADO...

CITY           SKY/WX    TMP DP  RH WIND       PRES   REMARKS
ASPEN          FAIR      62  44  51 SW9       30.31R
BUENA VISTA    FAIR      59  44  57 W7        30.35R
COPPER MTN     FAIR      59  30  33 W8        30.69R
BERTHOUD PASS  FAIR      50  34  53 NW15G25   30.71S
COTTONWOOD PAS FAIR      68  32  26 CALM      30.51R
GUNNISON       FAIR      66  43  42 N6        30.34R
KREMMLING      FAIR      55  50  82 CALM      30.31R
LEADVILLE      FAIR      53  36  52 NE6       30.49R
MONARCH PASS   FAIR      55  34  44 MISG      30.78S
SALIDA         FAIR      68  46  45 NW6       30.38R
SUNLIGHT       FAIR      61  34  36 N5        30.60R
WILKERSON PASS FAIR      54  37  54 E10       30.65F
$$

COZ069>075-240500-
...SAN LUIS VALLEY/SANGRE DE CRISTO MOUNTAINS...

CITY           SKY/WX    TMP DP  RH WIND       PRES   REMARKS
ALAMOSA        FAIR      71  39  31 NW10      30.29R
LA VETA PASS   FAIR      59  39  47 NE14G23   30.54R
SAGUACHE       FAIR      68  39  34 N5        30.32R
$$

COZ035-036-038>040-240500-
...NORTHERN COLORADO FRONT RANGE...

CITY           SKY/WX    TMP DP  RH WIND       PRES   REMARKS
DENVER INTL AP MOCLDY    74  51  44 SE21      30.13S
DMNS CITY PARK   N/A     75  49  39 E2        30.14R
AURORA         MOCLDY    73  51  46 SE14      30.16S
FRONT RANGE AP NOT AVBL
ERIE MUNI ARPT FAIR      77  46  34 SE10      30.11R
BOULDER MUN AP FAIR      77  45  31 SE8       30.11R
CENTENNIAL     MOCLDY    74  49  41 SE10G23   30.17F
BROOMFIELD     MOCLDY    75  48  38 SE7       30.15R
LONGMONT       FAIR      81  47  30 SE8G21    30.11R
$$

COZ041-046-047-076>085-087-088-240500-
...PIKES PEAK/PALMER DIVIDE AND SOUTHERN FOOTHILLS...

CITY           SKY/WX    TMP DP  RH WIND       PRES   REMARKS
COLO. SPRINGS  MOCLDY    71  51  49 N10       30.26R
A. F. ACADEMY  FAIR      70  47  45 CALM      30.27R
SCHRIEVER AFB  NOT AVBL
ELLICOTT       FAIR     N/A N/A N/A NE14      30.22R
FALCON         NOT AVBL
FORT CARSON    CLOUDY    73  50  43 N9G23     30.22R
LIMON          MOCLDY    66  58  75 NE13      30.21R
MONUMENT HILL  FAIR      63  52  67 SE7       30.32R
TRINIDAD       NOT AVBL
$$

COZ042>045-048>051-090-091-240500-
...NORTHEAST COLORADO...

CITY           SKY/WX    TMP DP  RH WIND       PRES   REMARKS
GREELEY ARPT   FAIR      73  50  43 SE9       30.10R
AKRON          LGT RAIN  69  57  65 SE15G22   30.08F
BURLINGTON     FAIR      77  53  43 E6        30.03R
WRAY           FAIR      79  54  41 N8        30.02R
STERLING       FAIR      70  61  73 S6        30.06R
HOLYOKE        FAIR      81  55  41 W13       30.00F
FORT MORGAN    FAIR      72  51  47 SE9       30.10R
$$

COZ086-089-092>099-240500-
...SOUTHEAST COLORADO...

CITY           SKY/WX    TMP DP  RH WIND       PRES   REMARKS
PUEBLO         FAIR      84  49  29 NE17      30.08R
LA JUNTA       LGT RAIN  72  62  71 E22G33    30.03F
LAMAR          FAIR      75  62  64 W21G31    30.01R
SPRINGFIELD      N/A     78  55  44 NW21G30   30.04R
$$




USA.gov is the U.S. government's official web portal to all federal, state and local government web resources and services.